Location: Campillo
(40.8621°N, 4.2488°W)
Time: 00:25:34
(UTC+00:00)

Tiangong - Visible Passes

Search period start: 01 August 2021 00:00
Search period end: 11 August 2021 00:00
Orbit: 373 x 386 km, 41.5° (Epoch: 31 July)

Date Brightness Start Highest point End Pass type
(mag) Time Alt. Az. Time Alt. Az. Time Alt. Az.
05 Aug 3.7 04:44:17 10° S 04:45:31 12° SE 04:46:46 10° ESE visible
07 Aug 3.1 04:17:15 11° SSW 04:19:17 19° SSE 04:21:36 10° ESE visible
08 Aug 3.9 03:18:46 10° SE 03:18:46 10° SE 03:19:00 10° SE visible
08 Aug 1.6 04:51:18 10° SW 04:54:20 47° SSE 04:57:22 10° E visible
09 Aug 2.2 03:52:19 26° S 03:53:01 29° SSE 03:55:48 10° E visible
10 Aug 4.0 02:53:44 11° ESE 02:53:44 11° ESE 02:53:58 10° ESE visible
10 Aug 1.1 04:25:49 16° WSW 04:28:09 68° SSE 04:31:15 10° E visible
